Maxwell AFB, AL

4:12 AM CST on December 18, 2017 (GMT -0600)
Maxwell Air Force Base

Weather History for KMXF - April, 2013

Change the Weather History Date:

Monday, April 1, 2013

  Actual Average Record
Temperature  
Mean Temperature 65 °F -  
Max Temperature 76 °F 73 °F 84 °F (2012)
Min Temperature 53 °F 51 °F 37 °F (2004)
Growing Degree Days 15 (Base 50)    
Moisture  
Dew Point 56 °F    
Average Humidity 80    
Maximum Humidity 100    
Minimum Humidity 28    
Precipitation  
Precipitation 0.00 in - - ()
Sea Level Pressure  
Sea Level Pressure 29.98 in    
Wind  
Wind Speed 4 mph (West)    
Max Wind Speed 10 mph    
Max Gust Speed -    
Visibility 10 miles    
Events      
Averages and records for this station are not official NWS values.
T = Trace of Precipitation, MM = Missing Value Source: NWS Daily Summary

Daily Weather History Graph

Daily Weather History Graph

Search for Another Location

Airport or City:

Trip Planner

Search our weather history database for the weather conditions in past years. The results will help you decide how hot, cold, wet, or windy it might be!

Date:

Astronomy

Apr. 01, 2013 Rise Set
Actual Time 6:33 AM CDT 7:05 PM CDT
Civil Twilight 6:08 AM CDT 7:30 PM CDT
Nautical Twilight 5:39 AM CDT 7:59 PM CDT
Astronomical Twilight 5:10 AM CDT 8:28 PM CDT
Moon No Moon Rise 10:34 AM CDT (4/1)
Length of Visible Light 13h 21m
Length of Day
12h 32m
Waning Gibbous, 67% of the Moon is Illuminated
Apr 1
Waning Gibbous
Apr 2
Last Quarter
Apr 10
New
Apr 18
First Quarter
Apr 25
Full

Hourly Weather History & Observations

Time (CDT) Temp. Dew Point Humidity Pressure Visibility Wind Dir Wind Speed Gust Speed Precip Events Conditions
12:58 AM 61.9 °F 61.3 °F 98% 29.92 in 10.0 mi SSW 2.3 mph - N/A   Overcast
1:33 AM 60.8 °F 60.8 °F 100% 29.90 in 10.0 mi SW 3.5 mph - N/A   Mostly Cloudy
1:58 AM 60.4 °F 59.7 °F 97% 29.91 in 10.0 mi SW 3.5 mph - N/A   Mostly Cloudy
2:08 AM 60.8 °F 60.8 °F 100% 29.90 in 10.0 mi SW 4.6 mph - N/A   Mostly Cloudy
2:38 AM 60.8 °F 60.8 °F 100% 29.90 in 10.0 mi Variable 3.5 mph - N/A   Overcast
2:48 AM 60.8 °F 60.8 °F 100% 29.90 in 10.0 mi WSW 5.8 mph - N/A   Overcast
2:58 AM 60.6 °F 60.1 °F 98% 29.91 in 10.0 mi Variable 3.5 mph - N/A   Overcast
3:28 AM 60.8 °F 59.0 °F 94% 29.90 in 10.0 mi SSW 5.8 mph - N/A   Overcast
3:58 AM 60.3 °F 59.9 °F 99% 29.92 in 10.0 mi West 4.6 mph - N/A   Overcast
4:58 AM 60.3 °F 59.9 °F 99% 29.93 in 6.0 mi WSW 3.5 mph - N/A   Overcast
5:03 AM 60.8 °F 60.8 °F 100% 29.92 in 7.0 mi SSW 5.8 mph - N/A   Overcast
5:38 AM 60.8 °F 59.0 °F 94% 29.94 in 8.0 mi WSW 3.5 mph - N/A   Overcast
5:48 AM 60.8 °F 59.0 °F 94% 29.94 in 9.0 mi WSW 3.5 mph - N/A   Overcast
5:58 AM 60.3 °F 59.7 °F 98% 29.96 in 9.0 mi SW 3.5 mph - N/A   Overcast
6:28 AM 60.8 °F 59.0 °F 94% 29.96 in 8.0 mi WSW 4.6 mph - N/A   Overcast
6:33 AM 60.8 °F 59.0 °F 94% 29.97 in 8.0 mi Variable 2.3 mph - N/A   Overcast
6:38 AM 60.8 °F 59.0 °F 94% 29.97 in 8.0 mi WNW 3.5 mph - N/A   Overcast
6:58 AM 60.3 °F 59.7 °F 98% 29.99 in 8.0 mi WSW 2.3 mph - N/A   Overcast
7:58 AM 61.0 °F 60.3 °F 97% 30.01 in 10.0 mi WNW 3.5 mph - N/A   Overcast
8:08 AM 60.8 °F 60.8 °F 100% 30.00 in 10.0 mi WNW 3.5 mph - N/A   Overcast
8:38 AM 60.8 °F 60.8 °F 100% 30.01 in 10.0 mi WNW 5.8 mph - N/A   Overcast
8:48 AM 60.8 °F 59.0 °F 94% 30.01 in 10.0 mi NW 6.9 mph - N/A   Overcast
8:58 AM 61.7 °F 59.5 °F 93% 30.03 in 10.0 mi WNW 3.5 mph - N/A   Mostly Cloudy
9:03 AM 62.6 °F 60.8 °F 94% 30.02 in 10.0 mi NW 4.6 mph - N/A   Mostly Cloudy
9:58 AM 65.1 °F 58.8 °F 80% 30.04 in 10.0 mi NW 4.6 mph - N/A   Overcast
10:03 AM 66.2 °F 59.0 °F 78% 30.03 in 10.0 mi North 4.6 mph - N/A   Mostly Cloudy
10:33 AM 68.0 °F 59.0 °F 73% 30.03 in 10.0 mi NNW 6.9 mph - N/A   Mostly Cloudy
10:58 AM 69.1 °F 59.0 °F 70% 30.04 in 10.0 mi WSW 5.8 mph - N/A   Scattered Clouds
11:58 AM 69.6 °F 55.4 °F 61% 30.04 in 10.0 mi NW 8.1 mph - N/A   Scattered Clouds
12:58 PM 72.9 °F 52.7 °F 49% 30.03 in 10.0 mi NW 8.1 mph - N/A   Scattered Clouds
1:58 PM 74.3 °F 49.3 °F 41% 30.02 in 10.0 mi WNW 8.1 mph - N/A   Scattered Clouds
2:58 PM 75.2 °F 45.1 °F 34% 30.01 in 10.0 mi NNW 9.2 mph - N/A   Partly Cloudy
3:58 PM 76.6 °F 43.0 °F 30% 30.00 in 10.0 mi NW 9.2 mph - N/A   Clear
4:58 PM 76.1 °F 41.4 °F 29% 29.99 in 10.0 mi NW 9.2 mph - N/A   Clear
5:59 PM 75.0 °F 39.6 °F 28% 29.99 in 10.0 mi NNW 10.4 mph - N/A   Clear
6:58 PM 70.5 °F 40.8 °F 34% 30.00 in 10.0 mi NW 3.5 mph - N/A   Clear
7:58 PM 63.1 °F 42.6 °F 47% 30.01 in 10.0 mi NW 2.3 mph - N/A   Clear
8:58 PM 58.5 °F 46.9 °F 66% 30.03 in 10.0 mi Calm Calm - N/A   Clear
9:58 PM 56.1 °F 51.1 °F 83% 30.05 in 10.0 mi Calm Calm - N/A   Clear
10:58 PM 54.5 °F 49.5 °F 83% 30.05 in 10.0 mi SW 2.3 mph - N/A   Clear
11:58 PM 53.6 °F 49.3 °F 85% 30.06 in 10.0 mi West 2.3 mph - N/A   Clear